Dillon, MT

12:13 PM MST on February 26, 2017 (GMT -0700)
Dillon

Weather History for KDLN - December, 2012

Change the Weather History Date:

Sunday, December 2, 2012

  Actual Average Record
Temperature  
Mean Temperature 39 °F 23 °F  
Max Temperature 51 °F 32 °F 55 °F (1975)
Min Temperature 27 °F 13 °F -7 °F (1985)
Degree Days  
Heating Degree Days 26    
Month to date heating degree days 50  
Since 1 July heating degree days 1823  
Cooling Degree Days 0    
Month to date cooling degree days 0  
Year to date cooling degree days 242  
Moisture  
Dew Point 29 °F    
Average Humidity 66    
Maximum Humidity 85    
Minimum Humidity 46    
Precipitation  
Precipitation 0.01 in 0.01 in 0.25 in (1955)
Month to date precipitation 0.02 0.02  
Year to date precipitation 6.14 10.32  
Snow  
Snow 0.00 in - - ()
Snow Depth 0.00 in    
Sea Level Pressure  
Sea Level Pressure 29.48 in    
Wind  
Wind Speed 21 mph (South)    
Max Wind Speed 41 mph    
Max Gust Speed 54 mph    
Visibility 10 miles    
Events Rain , Snow    
T = Trace of Precipitation, MM = Missing Value Source: NWS Daily Summary

Daily Weather History Graph

Daily Weather History Graph

Search for Another Location

Airport or City:

Trip Planner

Search our weather history database for the weather conditions in past years. The results will help you decide how hot, cold, wet, or windy it might be!

Date:

Astronomy

Dec. 02, 2012 Rise Set
Actual Time 7:50 AM MST 4:48 PM MST
Civil Twilight 7:17 AM MST 5:22 PM MST
Nautical Twilight 6:40 AM MST 5:59 PM MST
Astronomical Twilight 6:04 AM MST 6:34 PM MST
Moon 8:45 PM MST (12/2) 10:38 AM MST (12/2)
Length of Visible Light 10h 04m
Length of Day
8h 57m
Waning Gibbous, 85% of the Moon is Illuminated
Dec 2
Waning Gibbous
Dec 6
Last Quarter
Dec 13
New
Dec 19
First Quarter
Dec 28
Full

Hourly Weather History & Observations

Time (MST) Temp. Windchill Dew Point Humidity Pressure Visibility Wind Dir Wind Speed Gust Speed Precip Events Conditions
12:53 AM 46.0 °F 38.5 °F 30.9 °F 56% 29.61 in 10.0 mi South 19.6 mph 29.9 mph N/A   Mostly Cloudy
1:53 AM 45.0 °F 37.1 °F 32.0 °F 60% 29.57 in 10.0 mi SSE 19.6 mph 31.1 mph N/A   Overcast
2:53 AM 45.0 °F 36.0 °F 32.0 °F 60% 29.55 in 10.0 mi SE 25.3 mph - N/A   Mostly Cloudy
3:53 AM 46.0 °F 39.0 °F 30.9 °F 56% 29.49 in 10.0 mi South 17.3 mph 25.3 mph N/A   Partly Cloudy
4:53 AM 46.0 °F 37.4 °F 33.1 °F 61% 29.48 in 10.0 mi SSE 25.3 mph 34.5 mph N/A   Overcast
5:53 AM 48.0 °F - 32.0 °F 54% 29.43 in 10.0 mi South 24.2 mph 36.8 mph N/A   Overcast
6:53 AM 48.0 °F - 30.9 °F 52% 29.40 in 10.0 mi South 26.5 mph 35.7 mph N/A   Overcast
7:53 AM 46.9 °F - 32.0 °F 56% 29.37 in 10.0 mi SSE 35.7 mph 48.3 mph N/A   Overcast
8:53 AM 48.0 °F - 30.9 °F 52% 29.36 in 10.0 mi SSE 19.6 mph 33.4 mph N/A   Overcast
9:53 AM 48.9 °F - 30.9 °F 50% 29.33 in 10.0 mi South 19.6 mph 29.9 mph N/A   Overcast
10:53 AM 48.9 °F - 32.0 °F 52% 29.31 in 10.0 mi South 29.9 mph 44.9 mph N/A   Scattered Clouds
11:53 AM 50.0 °F - 32.0 °F 50% 29.26 in 10.0 mi South 33.4 mph 44.9 mph N/A   Clear
12:53 PM 50.0 °F - 30.9 °F 48% 29.23 in 10.0 mi South 32.2 mph 44.9 mph N/A   Scattered Clouds
1:53 PM 50.0 °F - 30.9 °F 48% 29.22 in 10.0 mi South 34.5 mph 54.1 mph N/A   Overcast
2:53 PM 48.9 °F - 32.0 °F 52% 29.27 in 10.0 mi South 29.9 mph 39.1 mph N/A   Overcast
3:53 PM 45.0 °F 37.1 °F 37.0 °F 74% 29.31 in 9.0 mi SSW 19.6 mph 27.6 mph 0.00 in Rain Light Rain
4:53 PM 45.0 °F 36.9 °F 35.1 °F 68% 29.36 in 10.0 mi SW 20.7 mph 28.8 mph 0.00 in   Mostly Cloudy
5:18 PM 37.4 °F 29.3 °F 33.8 °F 87% 29.48 in 10.0 mi NW 12.7 mph 35.7 mph 0.01 in   Overcast
5:53 PM 37.0 °F 31.6 °F 33.1 °F 86% 29.51 in 10.0 mi WSW 6.9 mph - 0.01 in   Overcast
6:53 PM 36.0 °F 29.0 °F 28.0 °F 73% 29.61 in 10.0 mi WNW 9.2 mph - 0.00 in Snow Light Snow
7:53 PM 34.0 °F 25.0 °F 21.9 °F 61% 29.67 in 10.0 mi SSW 12.7 mph - 0.00 in   Overcast
8:53 PM 32.0 °F 22.1 °F 19.0 °F 59% 29.73 in 10.0 mi WSW 13.8 mph 21.9 mph N/A   Clear
9:53 PM 32.0 °F 20.8 °F 17.1 °F 54% 29.76 in 10.0 mi SW 17.3 mph 26.5 mph N/A   Clear
10:53 PM 27.0 °F 16.7 °F 17.1 °F 66% 29.84 in 10.0 mi South 11.5 mph - N/A   Clear
11:53 PM 28.9 °F 20.4 °F 15.1 °F 56% 29.88 in 10.0 mi SSW 9.2 mph - N/A   Clear